Main page
METAR-TAF:

METAR-TAF

Airports :

Poços de Caldas, Minas Gerais, Brazil

latitude: 21-51S, longitude: 046-34W, elevation: 1260 m

Current weather observation

The report was made 44 minutes ago, at 18:00 UTC
Wind 4 kt from the East/Northeast
Temperature 28°C
Humidity 66%
Pressure 1016 hPa
Visibility 10 km or more
Scattered clouds at a height of 1500 ft
Few clouds at a height of 2000 ft, Towering cumulus.
Scattered clouds at a height of 8000 ft

METAR: SBPC 141800Z 07004KT 9999 SCT015 FEW020TCU SCT080 28/21 Q1016

Time: 16:44 (18:44 UTC)


TAF: missing

Weather observations and forecasts of more than 4000 airports (METAR and TAF reports).

The available stations are represented by yellow and red dots on the map.

Hover mouse over dot to see the name of the station.

Then click to see weather observations and forecasts.

To change the map : click on the green buttons with a black cross to zoom in, on the green button with a dash to zoom out, or on the green arrows for adjacent maps.


METAR-TAF: